Location: Arbon
(43.0005°N, 0.7472°E)
Time: 03:13:53
(UTC+00:00)

Cosmos 923 Rocket - Pass Details

Date: 07 August 2020
Orbit: 759 x 785 km, 74.0° (Epoch: 27 September)

Event Time Altitude Azimuth Distance (km) Brightness Sun altitude
Rises 02:41:43 0° 335° (NNW) 3,281 7.6 -20.4°
Reaches altitude 10° 02:44:10 10° 331° (NNW) 2,346 6.7 -20.1°
Maximum altitude 02:49:20 53° 255° (WSW) 952 4.1 -19.5°
Enters shadow 02:51:19 34° 198° (SSW) 1,259 4.6 -19.2°
